Regional Weather Roundup
Issued by NWS

Home | Current Version | Previous Version | Graphics & Text | Print | Product List | Glossary On
Versions: 1 2 3 4 5 6 7 8 9 10 11 12 13 14 15 16 17 18 19 20 21 22 23 24 25 26 27 28 29 30 31 32 33 34 35 36 37 38 39 40 41 42 43 44 45 46 47 48 49 50
000
ASUS45 KBOU 061010
RWRCO

WEATHER ROUNDUP FOR COLORADO
NATIONAL WEATHER SERVICE DENVER/BOULDER CO
400 AM MDT MON JUL 06 2015

NOTE: "FAIR" INDICATES FEW OR NO CLOUDS BELOW 12000 FEET WITH NO
SIGNIFICANT WEATHER AND/OR OBSTRUCTIONS TO VISIBILITY.

COZ001>005-013-030-031-061100-
...NORTHWEST COLORADO...

CITY           SKY/WX    TMP DP  RH WIND       PRES   REMARKS
CRAIG          MOCLDY    53  51  93 CALM      30.24S
HAYDEN         CLOUDY    54  48  82 E6        30.25F
MEEKER         MOCLDY    55  52  89 NE5       30.24S
MOUNT WERNER   NOT AVBL
STEAMBOAT SPGS CLOUDY    50  50  99 CALM      30.27S VSB 1/2
WALDEN         CLOUDY    50  46  87 SE5       30.32S
$$

COZ006>008-011-061100-
...WEST CENTRAL VALLEYS...

CITY           SKY/WX    TMP DP  RH WIND       PRES   REMARKS
GRAND JUNCTION PTCLDY    61  59  93 SE8       30.12R
MONTROSE       MOCLDY    60  55  83 S5        30.20S
EAGLE          MOCLDY    55  54  94 CALM      30.28S
RIFLE          MOCLDY    59  56  89 CALM      30.19R
DELTA          MOCLDY    61  57  86 E6        30.17R
NUCLA          MOCLDY    61  54  77 MISG      30.23S
$$

COZ017>023-064>068-061100-
...SOUTHWEST COLORADO...

CITY           SKY/WX    TMP DP  RH WIND       PRES   REMARKS
DURANGO        MOCLDY    58  50  75 SW3       30.19S
CORTEZ         CLEAR     60  53  77 CALM      30.18S
PAGOSA SPRINGS MOCLDY    55  51  86 CALM      30.27S
TELLURIDE      MOCLDY    50  49  95 SE6       30.41S
WOLF CREEK PAS NOT AVBL
$$

COZ009-010-012-014-032>034-037-058>063-061100-
...CENTRAL COLORADO...

CITY           SKY/WX    TMP DP  RH WIND       PRES   REMARKS
ASPEN          MOCLDY    51  48  89 SW5       30.31R
BUENA VISTA    MOCLDY    58  47  68 NW13      30.28S
COPPER MTN     FOG       46  43  87 W18       30.57S VSB 1/4
BERTHOUD PASS  HAZE      37  30  75 NW16G22   30.59S VSB 1/4
COTTONWOOD PAS NOT AVBL
GUNNISON       PTCLDY    48  45  87 CALM      30.33S
KREMMLING      PTCLDY    50  46  87 CALM      30.31S
LEADVILLE      MOCLDY    45  45 100 NE6       30.42R
MONARCH PASS   MOCLDY    43  41  93 W6        30.65S FOG
SALIDA         MOCLDY    61  52  71 CALM      30.33S
SUNLIGHT       MOCLDY    50  45  81 N3        30.53S
WILKERSON PASS FOG       45  43  93 CALM      30.53S VSB 1/2
$$

COZ069>075-061100-
...SAN LUIS VALLEY/SANGRE DE CRISTO MOUNTAINS...

CITY           SKY/WX    TMP DP  RH WIND       PRES   REMARKS
ALAMOSA        MOCLDY    57  54  89 NW3       30.25S
LA VETA PASS   FOG       46  45  93 MISG      30.43F VSB 1/2
SAGUACHE       PTCLDY    54  50  87 NW9       30.29S
$$

COZ035-036-038>040-061100-
...NORTHERN COLORADO FRONT RANGE...

CITY           SKY/WX    TMP DP  RH WIND       PRES   REMARKS
DENVER INTL AP LGT RAIN  61  58  90 N13       30.17R
DMNS CITY PARK   N/A     63  58  86 NE9G18    30.17S
AURORA         CLOUDY    61  61  99 N10       30.19R
FRONT RANGE AP NOT AVBL
ERIE MUNI ARPT RAIN      62  59  91 N3        30.17R
BOULDER MUN AP CLOUDY    63  59  88 CALM      30.18S
CENTENNIAL     CLOUDY    61  58  90 N8        30.19S
BROOMFIELD     RAIN      61  59  94 N6        30.20S
FORT COLLINS   MOCLDY    63  57  82 N6        30.17S
LONGMONT       LGT RAIN  64  61  91 CALM      30.18S
$$

COZ041-046-047-076>085-087-088-061100-
...PIKES PEAK/PALMER DIVIDE AND SOUTHERN FOOTHILLS...

CITY           SKY/WX    TMP DP  RH WIND       PRES   REMARKS
COLO. SPRINGS  CLOUDY    63  56  78 N12       30.19S
A. F. ACADEMY  CLOUDY    61  57  88 NW13G18   30.20F
ELLICOTT       MOCLDY   N/A N/A N/A N15       30.15F
FALCON         MOCLDY    58  56  92 N9G16     30.22S
FORT CARSON    CLOUDY    64  57  77 N13       30.15F
LIMON          CLOUDY    62  60  93 N13       30.13R
MONUMENT HILL  LGT RAIN  55  54  94 MISG      30.26R
TRINIDAD       PTCLDY    63  57  81 W6        30.14F
$$

COZ042>045-048>051-090-091-061100-
...NORTHEAST COLORADO...

CITY           SKY/WX    TMP DP  RH WIND       PRES   REMARKS
GREELEY ARPT   CLOUDY    63  57  82 N9        30.15R
AKRON          CLOUDY    63  60  90 N18       30.09R
BURLINGTON     LGT RAIN  65  63  93 N16G25    30.02R
WRAY           CLOUDY    67  63  87 N15G22    30.01R
STERLING       CLOUDY    64  59  82 N14         N/A
HOLYOKE        CLOUDY    66  63  88 N14       30.03S
FORT MORGAN    CLOUDY    62  57  84 N13       30.11S
$$

COZ086-089-092>099-061100-
...SOUTHEAST COLORADO...

CITY           SKY/WX    TMP DP  RH WIND       PRES   REMARKS
PUEBLO         CLOUDY    70  58  65 N13G20    30.08S
LA JUNTA       CLOUDY    68  62  81 NW8       30.04R
LAMAR          CLOUDY    70  62  76 N7        29.96R
SPRINGFIELD      N/A     67  59  75 NW12      30.00R
$$


USA.gov is the U.S. government's official web portal to all federal, state and local government web resources and services.